Time,TemperatureF,DewpointF,PressureIn,WindDirection,WindDirectionDegrees,WindSpeedMPH,WindSpeedGustMPH,Humidity,HourlyPrecipIn,Conditions,Clouds,dailyrainin,SoftwareType,DateUTC
2013-01-18 00:03:00,21.0,11.0,-100.00,NW,325,2.0,5.0,63,-99.99,,,-99.99,,2013-01-18 05:03:00,
2013-01-18 00:12:00,21.0,11.0,-100.00,WNW,295,2.0,6.0,63,-99.99,,,-99.99,,2013-01-18 05:12:00,
2013-01-18 00:22:00,21.0,11.0,-100.00,WNW,295,2.0,6.0,63,-99.99,,,-99.99,,2013-01-18 05:22:00,
2013-01-18 00:33:00,21.0,11.0,-100.00,WNW,295,2.0,6.0,63,-99.99,,,-99.99,,2013-01-18 05:33:00,
2013-01-18 00:42:00,22.0,11.0,-100.00,WNW,285,3.0,6.0,64,-99.99,,,-99.99,,2013-01-18 05:42:00,
2013-01-18 00:52:00,22.0,11.0,-100.00,West,265,3.0,6.0,63,-99.99,,,-99.99,,2013-01-18 05:52:00,
2013-01-18 01:02:00,22.0,11.0,-100.00,West,270,4.0,6.0,63,-99.99,,,-99.99,,2013-01-18 06:02:00,
2013-01-18 01:12:00,22.0,11.0,-100.00,West,265,5.0,7.0,63,-99.99,,,-99.99,,2013-01-18 06:12:00,
2013-01-18 01:22:00,22.0,12.0,-100.00,WSW,255,3.0,9.0,63,-99.99,,,-99.99,,2013-01-18 06:22:00,
2013-01-18 01:33:00,22.0,12.0,-100.00,West,270,3.0,7.0,63,-99.99,,,-99.99,,2013-01-18 06:33:00,
2013-01-18 01:43:00,22.0,12.0,-100.00,West,265,3.0,6.0,63,-99.99,,,-99.99,,2013-01-18 06:43:00,
2013-01-18 01:52:00,22.0,12.0,-100.00,WSW,255,4.0,6.0,63,-99.99,,,-99.99,,2013-01-18 06:52:00,
2013-01-18 02:02:00,22.0,12.0,-100.00,WSW,245,4.0,6.0,64,-99.99,,,-99.99,,2013-01-18 07:02:00,
2013-01-18 02:12:00,23.0,13.0,-100.00,West,260,4.0,7.0,65,-99.99,,,-99.99,,2013-01-18 07:12:00,
2013-01-18 02:22:00,23.0,13.0,-100.00,SW,215,2.0,6.0,66,-99.99,,,-99.99,,2013-01-18 07:22:00,
2013-01-18 02:32:00,23.0,14.0,-100.00,WSW,250,6.0,8.0,67,-99.99,,,-99.99,,2013-01-18 07:32:00,
2013-01-18 02:42:00,23.0,14.0,-100.00,WSW,245,6.0,7.0,67,-99.99,,,-99.99,,2013-01-18 07:42:00,
2013-01-18 02:52:00,23.0,14.0,-100.00,WSW,255,2.0,9.0,68,-99.99,,,-99.99,,2013-01-18 07:52:00,
2013-01-18 03:02:00,23.0,15.0,-100.00,WSW,250,4.0,6.0,69,-99.99,,,-99.99,,2013-01-18 08:02:00,
2013-01-18 03:12:00,23.0,15.0,-100.00,West,265,2.0,4.0,69,-99.99,,,-99.99,,2013-01-18 08:12:00,
2013-01-18 03:22:00,23.0,15.0,-100.00,WSW,255,4.0,7.0,70,-99.99,,,-99.99,,2013-01-18 08:22:00,
2013-01-18 03:32:00,24.0,16.0,-100.00,West,270,3.0,7.0,71,-99.99,,,-99.99,,2013-01-18 08:32:00,
2013-01-18 03:42:00,24.0,16.0,-100.00,SW,225,5.0,7.0,72,-99.99,,,-99.99,,2013-01-18 08:42:00,
2013-01-18 03:52:00,24.0,16.0,-100.00,West,265,4.0,7.0,73,-99.99,,,-99.99,,2013-01-18 08:52:00,
2013-01-18 04:03:00,24.0,17.0,-100.00,SW,225,1.0,6.0,73,-99.99,,,-99.99,,2013-01-18 09:03:00,
2013-01-18 04:12:00,24.0,17.0,-100.00,WSW,255,4.0,6.0,74,-99.99,,,-99.99,,2013-01-18 09:12:00,
2013-01-18 04:22:00,24.0,17.0,-100.00,West,265,2.0,6.0,75,-99.99,,,-99.99,,2013-01-18 09:22:00,
2013-01-18 04:33:00,24.0,17.0,-100.00,West,260,3.0,6.0,75,-99.99,,,-99.99,,2013-01-18 09:33:00,
2013-01-18 04:42:00,24.0,18.0,-100.00,West,270,2.0,6.0,76,-99.99,,,-99.99,,2013-01-18 09:42:00,
2013-01-18 04:52:00,24.0,18.0,-100.00,West,265,2.0,5.0,77,-99.99,,,-99.99,,2013-01-18 09:52:00,
2013-01-18 05:03:00,24.0,18.0,-100.00,SW,225,2.0,6.0,77,-99.99,,,-99.99,,2013-01-18 10:03:00,
2013-01-18 05:12:00,24.0,18.0,-100.00,WSW,250,3.0,5.0,78,-99.99,,,-99.99,,2013-01-18 10:12:00,
2013-01-18 05:22:00,24.0,18.0,-100.00,WSW,250,3.0,5.0,78,-99.99,,,-99.99,,2013-01-18 10:22:00,
2013-01-18 05:32:00,24.0,19.0,-100.00,WSW,240,1.0,5.0,79,-99.99,,,-99.99,,2013-01-18 10:32:00,
2013-01-18 05:42:00,24.0,19.0,-100.00,WSW,250,1.0,4.0,80,-99.99,,,-99.99,,2013-01-18 10:42:00,
2013-01-18 05:52:00,24.0,19.0,-100.00,WSW,250,1.0,4.0,80,-99.99,,,-99.99,,2013-01-18 10:52:00,
2013-01-18 06:02:00,24.0,19.0,-100.00,WSW,255,2.0,4.0,81,-99.99,,,-99.99,,2013-01-18 11:02:00,
2013-01-18 06:12:00,24.0,20.0,-100.00,WSW,250,2.0,4.0,82,-99.99,,,-99.99,,2013-01-18 11:12:00,
2013-01-18 06:23:00,24.0,20.0,-100.00,West,260,1.0,3.0,82,-99.99,,,-99.99,,2013-01-18 11:23:00,
2013-01-18 06:32:00,24.0,20.0,-100.00,West,280,1.0,3.0,82,-99.99,,,-99.99,,2013-01-18 11:32:00,
2013-01-18 06:42:00,24.0,20.0,-100.00,West,270,2.0,4.0,83,-99.99,,,-99.99,,2013-01-18 11:42:00,
2013-01-18 06:52:00,24.0,20.0,-100.00,West,270,1.0,6.0,84,-99.99,,,-99.99,,2013-01-18 11:52:00,
2013-01-18 07:03:00,24.0,20.0,-100.00,West,270,1.0,6.0,84,-99.99,,,-99.99,,2013-01-18 12:03:00,
2013-01-18 07:12:00,24.0,20.0,-100.00,West,270,2.0,4.0,84,-99.99,,,-99.99,,2013-01-18 12:12:00,
2013-01-18 07:22:00,24.0,20.0,-100.00,West,270,1.0,3.0,84,-99.99,,,-99.99,,2013-01-18 12:22:00,
2013-01-18 07:33:00,24.0,20.0,-100.00,West,270,1.0,2.0,85,-99.99,,,-99.99,,2013-01-18 12:33:00,
2013-01-18 07:43:00,24.0,21.0,-100.00,West,270,1.0,3.0,85,-99.99,,,-99.99,,2013-01-18 12:43:00,
2013-01-18 07:52:00,24.0,21.0,-100.00,WSW,250,1.0,2.0,85,-99.99,,,-99.99,,2013-01-18 12:52:00,
2013-01-18 08:03:00,24.0,21.0,-100.00,SW,235,1.0,2.0,85,-99.99,,,-99.99,,2013-01-18 13:03:00,
2013-01-18 08:12:00,24.0,21.0,-100.00,West,275,1.0,2.0,85,-99.99,,,-99.99,,2013-01-18 13:12:00,
2013-01-18 08:23:00,25.0,21.0,-100.00,West,270,2.0,3.0,85,-99.99,,,-99.99,,2013-01-18 13:23:00,
2013-01-18 08:33:00,25.0,21.0,-100.00,SW,230,1.0,3.0,85,-99.99,,,-99.99,,2013-01-18 13:33:00,
2013-01-18 08:43:00,25.0,21.0,-100.00,SSW,205,4.0,5.0,86,-99.99,,,-99.99,,2013-01-18 13:43:00,
2013-01-18 08:53:00,24.0,21.0,-100.00,SSW,210,4.0,6.0,86,-99.99,,,-99.99,,2013-01-18 13:53:00,
2013-01-18 09:03:00,24.0,21.0,-100.00,SW,220,4.0,6.0,86,-99.99,,,-99.99,,2013-01-18 14:03:00,
2013-01-18 09:12:00,25.0,22.0,-100.00,WSW,255,3.0,6.0,86,-99.99,,,-99.99,,2013-01-18 14:12:00,
2013-01-18 09:23:00,25.0,22.0,-100.00,SSW,210,4.0,7.0,86,-99.99,,,-99.99,,2013-01-18 14:23:00,
2013-01-18 09:33:00,26.0,22.0,-100.00,SW,235,4.0,8.0,85,-99.99,,,-99.99,,2013-01-18 14:33:00,
2013-01-18 09:42:00,26.0,21.0,-100.00,SW,230,4.0,9.0,84,-99.99,,,-99.99,,2013-01-18 14:42:00,
2013-01-18 09:53:00,25.0,21.0,-100.00,SSW,210,6.0,10.0,83,-99.99,,,-99.99,,2013-01-18 14:53:00,
2013-01-18 10:03:00,25.0,21.0,-100.00,SW,235,6.0,9.0,82,-99.99,,,-99.99,,2013-01-18 15:03:00,
2013-01-18 10:13:00,26.0,21.0,-100.00,SW,220,5.0,9.0,82,-99.99,,,-99.99,,2013-01-18 15:13:00,
2013-01-18 10:23:00,26.0,21.0,-100.00,SSW,210,6.0,9.0,81,-99.99,,,-99.99,,2013-01-18 15:23:00,
2013-01-18 10:34:00,27.0,21.0,-100.00,SW,220,6.0,9.0,79,-99.99,,,-99.99,,2013-01-18 15:34:00,
2013-01-18 10:43:00,27.0,21.0,-100.00,WSW,240,6.0,9.0,77,-99.99,,,-99.99,,2013-01-18 15:43:00,
2013-01-18 10:53:00,27.0,20.0,-100.00,SSW,195,9.0,12.0,76,-99.99,,,-99.99,,2013-01-18 15:53:00,
2013-01-18 11:03:00,28.0,21.0,-100.00,SSW,205,7.0,12.0,75,-99.99,,,-99.99,,2013-01-18 16:03:00,
2013-01-18 11:12:00,28.0,21.0,-100.00,SSW,205,8.0,12.0,73,-99.99,,,-99.99,,2013-01-18 16:12:00,
2013-01-18 11:23:00,28.0,21.0,-100.00,SSW,210,9.0,14.0,73,-99.99,,,-99.99,,2013-01-18 16:23:00,
2013-01-18 11:33:00,28.0,21.0,-100.00,SSW,210,9.0,14.0,73,-99.99,,,-99.99,,2013-01-18 16:33:00,
2013-01-18 11:43:00,29.0,22.0,-100.00,SW,215,8.0,14.0,71,-99.99,,,-99.99,,2013-01-18 16:43:00,
2013-01-18 11:52:00,29.0,21.0,-100.00,SW,225,9.0,13.0,71,-99.99,,,-99.99,,2013-01-18 16:52:00,
2013-01-18 12:03:00,29.0,21.0,-100.00,WSW,250,9.0,17.0,71,-99.99,,,-99.99,,2013-01-18 17:03:00,
2013-01-18 12:13:00,29.0,20.0,-100.00,SSW,205,13.0,18.0,69,-99.99,,,-99.99,,2013-01-18 17:13:00,
2013-01-18 12:23:00,29.0,20.0,-100.00,SSW,205,13.0,18.0,69,-99.99,,,-99.99,,2013-01-18 17:23:00,
2013-01-18 12:33:00,30.0,20.0,-100.00,SW,220,9.0,15.0,67,-99.99,,,-99.99,,2013-01-18 17:33:00,
2013-01-18 12:43:00,30.0,20.0,-100.00,SW,225,10.0,17.0,66,-99.99,,,-99.99,,2013-01-18 17:43:00,
2013-01-18 12:53:00,30.0,20.0,-100.00,SSW,200,10.0,16.0,67,-99.99,,,-99.99,,2013-01-18 17:53:00,
2013-01-18 13:03:00,30.0,21.0,-100.00,SSW,210,11.0,17.0,67,-99.99,,,-99.99,,2013-01-18 18:03:00,
2013-01-18 13:13:00,30.0,20.0,-100.00,SW,215,12.0,17.0,66,-99.99,,,-99.99,,2013-01-18 18:13:00,
2013-01-18 13:23:00,31.0,21.0,-100.00,SW,220,7.0,17.0,65,-99.99,,,-99.99,,2013-01-18 18:23:00,
2013-01-18 13:33:00,31.0,21.0,-100.00,SW,225,12.0,18.0,65,-99.99,,,-99.99,,2013-01-18 18:33:00,
2013-01-18 13:43:00,32.0,21.0,-100.00,SSW,195,12.0,19.0,64,-99.99,,,-99.99,,2013-01-18 18:43:00,
2013-01-18 13:52:00,32.0,21.0,-100.00,SW,225,10.0,17.0,63,-99.99,,,-99.99,,2013-01-18 18:52:00,
2013-01-18 14:03:00,32.0,21.0,-100.00,SSW,195,11.0,20.0,63,-99.99,,,-99.99,,2013-01-18 19:03:00,
2013-01-18 14:13:00,32.0,21.0,-100.00,SW,215,12.0,20.0,62,-99.99,,,-99.99,,2013-01-18 19:13:00,
2013-01-18 14:23:00,32.0,21.0,-100.00,SW,225,11.0,17.0,62,-99.99,,,-99.99,,2013-01-18 19:23:00,
2013-01-18 14:33:00,33.0,21.0,-100.00,SW,220,11.0,20.0,62,-99.99,,,-99.99,,2013-01-18 19:33:00,
2013-01-18 14:43:00,32.0,21.0,-100.00,SSW,200,13.0,21.0,64,-99.99,,,-99.99,,2013-01-18 19:43:00,
2013-01-18 14:52:00,33.0,22.0,-100.00,SW,225,11.0,19.0,64,-99.99,,,-99.99,,2013-01-18 19:52:00,
2013-01-18 15:03:00,33.0,22.0,-100.00,SW,215,9.0,21.0,63,-99.99,,,-99.99,,2013-01-18 20:03:00,
2013-01-18 15:13:00,33.0,22.0,-100.00,SW,230,12.0,25.0,63,-99.99,,,-99.99,,2013-01-18 20:13:00,
2013-01-18 15:23:00,33.0,22.0,-100.00,SW,215,13.0,21.0,63,-99.99,,,-99.99,,2013-01-18 20:23:00,
2013-01-18 15:33:00,33.0,22.0,-100.00,SW,220,11.0,22.0,62,-99.99,,,-99.99,,2013-01-18 20:33:00,
2013-01-18 15:43:00,33.0,22.0,-100.00,SW,220,16.0,23.0,62,-99.99,,,-99.99,,2013-01-18 20:43:00,
2013-01-18 15:53:00,34.0,22.0,-100.00,SSW,210,10.0,20.0,62,-99.99,,,-99.99,,2013-01-18 20:53:00,
2013-01-18 16:03:00,34.0,22.0,-100.00,SSW,205,11.0,19.0,62,-99.99,,,-99.99,,2013-01-18 21:03:00,
2013-01-18 16:13:00,34.0,22.0,-100.00,SSW,200,17.0,28.0,62,-99.99,,,-99.99,,2013-01-18 21:13:00,
2013-01-18 16:23:00,34.0,22.0,-100.00,SSW,210,15.0,21.0,63,-99.99,,,-99.99,,2013-01-18 21:23:00,
2013-01-18 16:33:00,34.0,23.0,-100.00,SW,220,12.0,25.0,62,-99.99,,,-99.99,,2013-01-18 21:33:00,
2013-01-18 16:43:00,35.0,23.0,-100.00,SSW,210,12.0,21.0,62,-99.99,,,-99.99,,2013-01-18 21:43:00,
2013-01-18 16:52:00,35.0,23.0,-100.00,SW,215,15.0,22.0,62,-99.99,,,-99.99,,2013-01-18 21:52:00,
2013-01-18 17:03:00,35.0,23.0,-100.00,SSW,210,12.0,21.0,62,-99.99,,,-99.99,,2013-01-18 22:03:00,
2013-01-18 17:12:00,35.0,23.0,-100.00,SW,215,11.0,19.0,61,-99.99,,,-99.99,,2013-01-18 22:12:00,
2013-01-18 17:23:00,35.0,23.0,-100.00,SSW,205,13.0,21.0,61,-99.99,,,-99.99,,2013-01-18 22:23:00,
2013-01-18 17:33:00,35.0,23.0,-100.00,SSW,205,12.0,21.0,61,-99.99,,,-99.99,,2013-01-18 22:33:00,
2013-01-18 17:43:00,35.0,24.0,-100.00,SW,220,14.0,21.0,62,-99.99,,,-99.99,,2013-01-18 22:43:00,
2013-01-18 17:52:00,35.0,24.0,-100.00,SSW,205,12.0,21.0,63,-99.99,,,-99.99,,2013-01-18 22:52:00,
2013-01-18 18:03:00,35.0,24.0,-100.00,SW,225,13.0,22.0,63,-99.99,,,-99.99,,2013-01-18 23:03:00,
2013-01-18 18:12:00,35.0,23.0,-100.00,SW,215,12.0,23.0,63,-99.99,,,-99.99,,2013-01-18 23:12:00,
2013-01-18 18:22:00,35.0,23.0,-100.00,SSW,210,12.0,16.0,63,-99.99,,,-99.99,,2013-01-18 23:22:00,
2013-01-18 18:33:00,35.0,23.0,-100.00,SSW,210,15.0,21.0,62,-99.99,,,-99.99,,2013-01-18 23:33:00,
2013-01-18 18:43:00,35.0,23.0,-100.00,SW,220,15.0,24.0,62,-99.99,,,-99.99,,2013-01-18 23:43:00,
2013-01-18 18:52:00,35.0,23.0,-100.00,SSW,210,12.0,24.0,62,-99.99,,,-99.99,,2013-01-18 23:52:00,
2013-01-18 19:02:00,35.0,23.0,-100.00,SSW,205,15.0,21.0,61,-99.99,,,-99.99,,2013-01-19 00:02:00,
2013-01-18 19:12:00,35.0,23.0,-100.00,SSW,200,13.0,22.0,61,-99.99,,,-99.99,,2013-01-19 00:12:00,
2013-01-18 19:23:00,34.0,23.0,-100.00,SSW,195,14.0,25.0,62,-99.99,,,-99.99,,2013-01-19 00:23:00,
2013-01-18 19:33:00,34.0,23.0,-100.00,SW,215,14.0,24.0,62,-99.99,,,-99.99,,2013-01-19 00:33:00,
2013-01-18 19:43:00,34.0,22.0,-100.00,SSW,200,15.0,25.0,61,-99.99,,,-99.99,,2013-01-19 00:43:00,
2013-01-18 19:53:00,34.0,22.0,-100.00,SSW,195,15.0,24.0,61,-99.99,,,-99.99,,2013-01-19 00:53:00,
2013-01-18 20:02:00,34.0,22.0,-100.00,SSW,200,15.0,24.0,61,-99.99,,,-99.99,,2013-01-19 01:02:00,
2013-01-18 20:12:00,35.0,23.0,-100.00,SSW,195,14.0,22.0,61,-99.99,,,-99.99,,2013-01-19 01:12:00,
2013-01-18 20:22:00,35.0,23.0,-100.00,SSW,205,14.0,24.0,61,-99.99,,,-99.99,,2013-01-19 01:22:00,
2013-01-18 20:33:00,35.0,23.0,-100.00,SW,220,16.0,27.0,61,-99.99,,,-99.99,,2013-01-19 01:33:00,
2013-01-18 20:42:00,35.0,23.0,-100.00,SSW,200,16.0,29.0,61,-99.99,,,-99.99,,2013-01-19 01:42:00,
2013-01-18 20:52:00,35.0,23.0,-100.00,SSW,200,14.0,24.0,61,-99.99,,,-99.99,,2013-01-19 01:52:00,
2013-01-18 21:03:00,35.0,23.0,-100.00,SSW,210,17.0,27.0,61,-99.99,,,-99.99,,2013-01-19 02:03:00,
2013-01-18 21:12:00,35.0,23.0,-100.00,SSW,205,17.0,27.0,60,-99.99,,,-99.99,,2013-01-19 02:12:00,
2013-01-18 21:23:00,35.0,23.0,-100.00,SW,215,17.0,27.0,60,-99.99,,,-99.99,,2013-01-19 02:23:00,
2013-01-18 21:33:00,35.0,23.0,-100.00,SSW,210,12.0,27.0,60,-99.99,,,-99.99,,2013-01-19 02:33:00,
2013-01-18 21:43:00,36.0,23.0,-100.00,SSW,210,12.0,35.0,60,-99.99,,,-99.99,,2013-01-19 02:43:00,
2013-01-18 21:53:00,36.0,24.0,-100.00,SW,215,14.0,25.0,60,-99.99,,,-99.99,,2013-01-19 02:53:00,
2013-01-18 22:03:00,36.0,24.0,-100.00,SW,215,22.0,29.0,59,-99.99,,,-99.99,,2013-01-19 03:03:00,
2013-01-18 22:12:00,36.0,24.0,-100.00,SSW,200,15.0,24.0,59,-99.99,,,-99.99,,2013-01-19 03:12:00,
2013-01-18 22:22:00,36.0,24.0,-100.00,SW,215,14.0,25.0,60,-99.99,,,-99.99,,2013-01-19 03:22:00,
2013-01-18 22:33:00,37.0,24.0,-100.00,SW,215,14.0,24.0,59,-99.99,,,-99.99,,2013-01-19 03:33:00,
2013-01-18 22:43:00,37.0,24.0,-100.00,SW,215,15.0,24.0,59,-99.99,,,-99.99,,2013-01-19 03:43:00,
2013-01-18 22:52:00,37.0,24.0,-100.00,SW,235,12.0,21.0,59,-99.99,,,-99.99,,2013-01-19 03:52:00,
2013-01-18 23:02:00,37.0,24.0,-100.00,SW,230,12.0,21.0,60,-99.99,,,-99.99,,2013-01-19 04:02:00,
2013-01-18 23:12:00,37.0,25.0,-100.00,SW,235,12.0,23.0,60,-99.99,,,-99.99,,2013-01-19 04:12:00,
2013-01-18 23:22:00,37.0,25.0,-100.00,SW,230,16.0,24.0,61,-99.99,,,-99.99,,2013-01-19 04:22:00,
2013-01-18 23:33:00,37.0,25.0,-100.00,SW,220,13.0,22.0,62,-99.99,,,-99.99,,2013-01-19 04:33:00,
2013-01-18 23:42:00,37.0,25.0,-100.00,SW,225,12.0,27.0,62,-99.99,,,-99.99,,2013-01-19 04:42:00,
2013-01-18 23:52:00,37.0,26.0,-100.00,SW,220,12.0,22.0,63,-99.99,,,-99.99,,2013-01-19 04:52:00,